FLOCK 3K-10 (43905 NORAD) Tracking and Keplerian Element Data

This shows tracking and keplerian element data for the satellite.

Feedback or suggestion? Click here.




ElementValue
Catalog43905
NameFLOCK 3K-10
Epoch Orbit316
Epoch Day16.83362585
Epoch Year2019
RAAN286.1769
Inclination97.2998
Eccentricity0.0022598
Argument of Perigee167.4175
Mean Anonmoly192.7631
Mean Motion15.23787159
Decay Rate1.67E-05
L11 43905U 18111AF 19016.83362585 .00001670 00000-0 71837-4 0 9994
L22 43905 97.2998 286.1769 0022598 167.4175 192.7631 15.23787159 3160

Live tracking and technical data element details for FLOCK 3K-10 (NORAD 43905). FLOCK 3K-10 can be tracked NOW for your location showing map with azimuth and elevation plus other details from your city location.

Track the satellite on the map from your city or location and see movement details for azimuth, elevation, latitude, longitude, range, height, and movement on the map or in text.







IsCatalogInMostPopularTable: catalog: 43905, numindb: 28
Update: records affected: 1



GetName: 43905 FLOCK 3K-10

Hit Count: updated at: Thu, 17 Jan 2019 16:11:09 GMT